Location: Caltech
(34.1382°N, 118.1253°W)
Time: 03:42:51
(UTC-07:00)

OPAL - Visible Passes

Search period start: 31 October 2014 00:00
Search period end: 09 November 2014 23:00
Orbit: 744 x 797 km, 100.2° (Epoch: 31 October)

Date Brightness Start Highest point End Pass type
(mag) Time Alt. Az. Time Alt. Az. Time Alt. Az.
31 Oct 9.3 04:34:05 10° SE 04:38:24 28° ENE 04:42:41 10° N visible
31 Oct 8.3 06:12:46 10° SSW 06:17:09 29° W 06:21:31 10° NW visible
31 Oct 7.6 18:25:31 10° NNE 18:30:28 80° WNW 18:35:25 10° SSW visible
01 Nov 10.4 04:01:23 10° E 04:03:32 13° ENE 04:05:41 10° NE visible
01 Nov 7.4 05:36:44 10° S 05:41:49 68° WSW 05:46:53 10° NNW visible
01 Nov 10.1 19:30:23 10° NNW 19:33:44 19° WNW 19:37:05 10° WSW visible
02 Nov 8.2 04:01:43 10° SE 04:06:39 52° ENE 04:11:33 10° N visible
02 Nov 9.1 05:42:52 10° SW 05:45:44 15° W 05:48:37 10° WNW visible
02 Nov 8.8 17:54:09 10° N 17:58:46 41° WNW 18:03:24 10° SW visible
03 Nov 9.6 03:27:43 10° ESE 03:31:39 23° ENE 03:35:33 10° NNE visible
03 Nov 8.1 05:05:38 10° SSW 05:10:17 35° W 05:14:55 10° NW visible
03 Nov 7.5 17:18:40 10° NNE 17:23:38 83° ESE 17:28:36 10° SSW visible
04 Nov 7.4 04:29:53 10° SSE 04:35:00 84° WSW 04:40:04 10° NNW visible
04 Nov 9.8 18:23:10 10° NNW 18:26:59 23° WNW 18:30:47 10° WSW visible
05 Nov 8.6 03:55:06 10° SE 03:59:52 42° ENE 04:04:35 10° N visible
05 Nov 8.8 05:35:19 10° SW 05:38:50 19° W 05:42:21 10° NW visible
05 Nov 8.3 17:47:10 10° N 17:51:58 52° WNW 17:56:46 10° SSW visible
06 Nov 9.9 03:21:27 10° ESE 03:24:54 19° ENE 03:28:20 10° NNE visible
06 Nov 7.8 04:58:35 10° S 05:03:26 44° WSW 05:08:14 10° NNW visible
06 Nov 10.3 18:53:06 10° NW 18:55:05 12° WNW 18:57:03 10° W visible
07 Nov 7.5 04:23:06 10° SSE 04:28:10 79° ENE 04:33:12 10° NNW visible
07 Nov 9.4 18:16:02 10° N 18:20:12 28° WNW 18:24:23 10° SW visible
08 Nov 9.0 03:48:34 10° SE 03:53:05 34° ENE 03:57:33 10° N visible
08 Nov 8.6 05:27:57 10° SSW 05:31:56 23° W 05:35:55 10° NW visible
08 Nov 7.9 17:40:14 10° N 17:45:09 65° WNW 17:50:04 10° SSW visible
09 Nov 10.1 03:15:20 10° E 03:18:10 15° ENE 03:20:58 10° NNE visible
09 Nov 7.5 04:51:36 10° S 04:56:34 55° WSW 05:01:29 10° NNW visible
09 Nov 10.2 18:45:30 10° NNW 18:48:20 15° WNW 18:51:11 10° W visible
